STARLINK-11382, 62881

Orbit data source: Space-Track

STARLINK-11382, 62881 is a payload satellite owned by SpaceX/Seattle (US) in LEO that was launched on Tue, 04 Feb 2025 UTC via an FALCON 9 launch vehicle from the Air Force Eastern Test Range (AFETR). Payload-class satellites include a variety of spacecraft equipped with specific instruments for various scientific and technological missions. These include communications satellites like Starlink; space stations such as the ISS; scientific satellites like the Hubble; Earth observation satellites from companies like Planet Labs, Umbra, and HawkEye 360; GPS; miniature CubeSats for education and research; and military/defense satellites.

Loading next visibility...
Identifier
62881, 2025-024C
Orbit
LEO
Last TLE update
2 days ago
Origin
Manufacturer
SpaceX/Seattle
Mission
Operational Commercial Communications
Bus & Motor
STARLINK V2M, Unknown motor
Mass
730 kg wet, ~700 kg dry
Launch date (UTC)
2025-02-04 (5 months ago)
Launch vehicle
FALCON 9
Launch site
Air Force Eastern Test Range (AFETR)
Object type
Payload
Rocket body
Debris
Shape & HBR
Box + 2 Pan, 29 m
Radar Cross Section
36.964 m², Large (>1 m²)

Expand to show TLE details & history

TLE from 2 days ago
0 STARLINK-11382
1 62881U 25024C   25182.26803021  .00165420  00000-0  12639-2 0  9999
2 62881  43.0004 257.0210 0002048 266.0467  94.0167 15.70900747 23923
Epoch: 2025-07-01T06:25Z
TLE epoch observation values (Epoch: 2025-07-01T06:25:57.81Z)
Latitude
0.00003°
Longitude
-119.03577°
Altitude
356.19 km
Speed
7.697 km/s
True Right ascension
17h 08m 05s
True Declination
0° 00' 00"
Sunlit
Object was in full shadow at epoch
Visualization orbit readout
Latitude
4.51742°
Longitude
44.05615°
Altitude
354.1 km
Speed
7.699 km/s
Apparent Right ascension
04h 56m 13s
Apparent Declination
-17° 39' 02"
Sunlit
Object is in daylight
Visualization observer readout
Local Sidereal Time
18:13:19
Azimuth
42.392° NE
Elevation
-62.186°
Doppler factor
1
Orbital elements
Apogee altitude
359.683 km
Perigee altitude
356.923 km
Semi-major axis
6,736.44 km
Eccentricity
0.0002
Inclination
43.0004°
RAAN
257.021°
Arg. of periapsis
266.0467°
True anomaly
Unknown
Mean anomaly
94.0167°
Eccentric anomaly
Unknown
Mean motion
3.92552 °/min
Orbital period
91.71 mins
BSTAR
0.0012639
Loading maneuver chart data...
Loading SW <> Apogee altitude chart data...
Loading historical data...
Loading historical data...
Loading historical data...
Loading historical data...
Loading historical data...
Loading historical data...
Loading historical data...

STARLINK-11382 Visibility forecast

Observer location: undefined°, undefined°

Span
Click to sort rows by Start time (UTC) header in descending order
Start Az.
Max El. time (UTC)
Max El. Az.
Max El.
End time (UTC)
End Az.
4 mins2025-07-03 07:27:38.983Z197.993° SSW2025-07-03 07:29:38.983Z142.667° SSE22.296°2025-07-03 07:31:38.983Z95.175° ESE
4 mins2025-07-03 09:03:38.983Z264.114° W2025-07-03 09:05:38.983Z30.693° NE41.603°2025-07-03 09:07:38.983Z68.13° E
4 mins2025-07-03 12:16:38.983Z285.66° WNW2025-07-03 12:17:38.983Z266.31° W44.259°2025-07-03 12:20:38.983Z111.278° ESE
|